TimeEDT,TemperatureF,Dew PointF,Humidity,Sea Level PressureIn,VisibilityMPH,Wind Direction,Wind SpeedMPH,Gust SpeedMPH,PrecipitationIn,Events,Conditions,WindDirDegrees,DateUTC
12:15 AM,36.5,33.3,88,30.05,10.0,Calm,Calm,-,N/A,,Clear,0,2013-05-14 04:15:00
12:35 AM,36.7,33.8,89,30.05,10.0,East,3.5,-,N/A,,Scattered Clouds,100,2013-05-14 04:35:00
12:55 AM,36.7,33.8,89,30.05,10.0,Calm,Calm,-,N/A,,Scattered Clouds,0,2013-05-14 04:55:00
1:15 AM,36.7,32.0,83,30.05,10.0,ENE,3.5,-,N/A,,Clear,60,2013-05-14 05:15:00
1:35 AM,36.7,31.8,83,30.04,10.0,Calm,Calm,-,N/A,,Clear,0,2013-05-14 05:35:00
1:55 AM,36.7,31.6,82,30.05,10.0,Calm,Calm,-,N/A,,Scattered Clouds,0,2013-05-14 05:55:00
2:15 AM,36.5,32.0,84,30.05,10.0,Calm,Calm,-,N/A,,Mostly Cloudy,0,2013-05-14 06:15:00
2:35 AM,36.7,32.0,83,30.05,10.0,Calm,Calm,-,N/A,,Overcast,0,2013-05-14 06:35:00
2:55 AM,36.7,32.0,83,30.05,10.0,Calm,Calm,-,N/A,,Overcast,0,2013-05-14 06:55:00
3:15 AM,36.7,32.2,84,30.05,10.0,Calm,Calm,-,N/A,,Overcast,0,2013-05-14 07:15:00
3:35 AM,36.7,32.2,84,30.05,10.0,Calm,Calm,-,N/A,,Overcast,0,2013-05-14 07:35:00
3:55 AM,36.3,31.8,84,30.05,10.0,Calm,Calm,-,N/A,,Mostly Cloudy,0,2013-05-14 07:55:00
4:15 AM,34.7,31.1,87,30.06,10.0,Calm,Calm,-,N/A,,Mostly Cloudy,0,2013-05-14 08:15:00
4:35 AM,34.2,30.6,87,30.06,10.0,Calm,Calm,-,N/A,,Mostly Cloudy,0,2013-05-14 08:35:00
4:55 AM,34.2,30.7,87,30.07,10.0,Calm,Calm,-,N/A,,Mostly Cloudy,0,2013-05-14 08:55:00
5:15 AM,34.2,30.6,87,30.07,10.0,Calm,Calm,-,N/A,,Overcast,0,2013-05-14 09:15:00
5:35 AM,34.5,30.6,85,30.07,10.0,Calm,Calm,-,N/A,,Overcast,0,2013-05-14 09:35:00
5:55 AM,36.3,32.5,86,30.08,10.0,Calm,Calm,-,N/A,,Overcast,0,2013-05-14 09:55:00
6:15 AM,36.7,32.9,86,30.08,10.0,Calm,Calm,-,N/A,,Overcast,0,2013-05-14 10:15:00
6:35 AM,36.9,33.3,87,30.09,10.0,Calm,Calm,-,N/A,,Overcast,0,2013-05-14 10:35:00
6:55 AM,39.2,35.1,85,30.09,10.0,Calm,Calm,-,N/A,,Overcast,0,2013-05-14 10:55:00
7:15 AM,40.1,33.3,77,30.09,10.0,Calm,Calm,-,N/A,,Overcast,0,2013-05-14 11:15:00
7:35 AM,41.5,32.0,69,30.10,10.0,Calm,Calm,-,N/A,,Overcast,0,2013-05-14 11:35:00
7:55 AM,41.9,30.2,63,30.10,10.0,Calm,Calm,-,N/A,,Overcast,0,2013-05-14 11:55:00
8:15 AM,44.2,29.7,57,30.10,10.0,Calm,Calm,-,N/A,,Mostly Cloudy,0,2013-05-14 12:15:00
8:35 AM,46.8,28.0,48,30.10,10.0,Calm,Calm,-,N/A,,Scattered Clouds,0,2013-05-14 12:35:00
8:55 AM,49.3,29.3,46,30.10,10.0,Calm,Calm,-,N/A,,Scattered Clouds,0,2013-05-14 12:55:00
9:15 AM,49.3,27.7,43,30.10,10.0,WNW,3.5,-,N/A,,Clear,300,2013-05-14 13:15:00
9:35 AM,49.3,26.1,40,30.09,10.0,NNW,3.5,-,N/A,,Clear,340,2013-05-14 13:35:00
9:55 AM,49.3,23.5,36,30.09,10.0,North,5.8,-,N/A,,Clear,10,2013-05-14 13:55:00
10:15 AM,51.8,25.3,36,30.08,10.0,NW,3.5,-,N/A,,Clear,320,2013-05-14 14:15:00
10:35 AM,51.8,23.5,33,30.08,10.0,North,6.9,-,N/A,,Clear,350,2013-05-14 14:35:00
11:15 AM,53.1,24.6,33,30.07,10.0,Calm,Calm,-,N/A,,Clear,0,2013-05-14 15:15:00
11:35 AM,54.5,24.8,32,30.07,10.0,NNW,3.5,-,N/A,,Clear,330,2013-05-14 15:35:00
11:55 AM,54.5,24.8,32,30.07,10.0,NNW,5.8,-,N/A,,Clear,340,2013-05-14 15:55:00
12:15 PM,54.5,23.7,30,30.06,10.0,North,9.2,-,N/A,,Scattered Clouds,10,2013-05-14 16:15:00
12:35 PM,54.5,21.2,27,30.06,10.0,North,6.9,-,N/A,,Scattered Clouds,360,2013-05-14 16:35:00
12:55 PM,55.2,20.7,26,30.06,10.0,North,4.6,-,N/A,,Clear,360,2013-05-14 16:55:00
1:15 PM,54.7,19.9,26,30.06,10.0,NNW,5.8,-,N/A,,Scattered Clouds,340,2013-05-14 17:15:00
1:35 PM,56.8,21.4,25,30.05,10.0,North,5.8,-,N/A,,Scattered Clouds,360,2013-05-14 17:35:00
1:55 PM,54.5,20.5,27,30.05,10.0,NNE,6.9,-,N/A,,Scattered Clouds,20,2013-05-14 17:55:00
2:35 PM,57.4,20.5,24,30.04,10.0,NNW,6.9,-,N/A,,Scattered Clouds,340,2013-05-14 18:35:00
2:55 PM,59.4,19.9,22,30.03,10.0,North,10.4,16.1,N/A,,Scattered Clouds,350,2013-05-14 18:55:00
3:15 PM,59.4,20.7,22,30.03,10.0,North,8.1,-,N/A,,Scattered Clouds,360,2013-05-14 19:15:00
3:35 PM,58.3,19.0,22,30.03,10.0,West,4.6,-,N/A,,Clear,270,2013-05-14 19:35:00
3:55 PM,59.4,19.2,21,30.02,10.0,North,8.1,-,N/A,,Clear,350,2013-05-14 19:55:00
4:15 PM,58.1,18.1,21,30.01,10.0,NW,3.5,-,N/A,,Clear,320,2013-05-14 20:15:00
4:35 PM,58.5,18.7,21,30.01,10.0,Calm,Calm,-,N/A,,Clear,0,2013-05-14 20:35:00
4:55 PM,59.0,17.1,20,30.00,10.0,West,6.9,-,N/A,,Clear,260,2013-05-14 20:55:00
5:35 PM,59.4,20.8,23,30.00,10.0,WNW,3.5,-,N/A,,Mostly Cloudy,300,2013-05-14 21:35:00
5:55 PM,59.4,21.7,23,30.00,10.0,NNW,5.8,-,N/A,,Scattered Clouds,340,2013-05-14 21:55:00
6:15 PM,57.7,20.3,23,29.99,10.0,WNW,3.5,-,N/A,,Clear,300,2013-05-14 22:15:00
6:35 PM,56.8,20.1,24,29.99,10.0,NNW,3.5,-,N/A,,Clear,340,2013-05-14 22:35:00
6:55 PM,56.8,20.5,24,29.99,10.0,WNW,3.5,-,N/A,,Clear,290,2013-05-14 22:55:00
7:15 PM,56.8,20.8,25,29.98,10.0,NNW,3.5,-,N/A,,Clear,330,2013-05-14 23:15:00
7:35 PM,54.5,20.7,27,29.99,10.0,West,3.5,-,N/A,,Clear,280,2013-05-14 23:35:00
8:15 PM,52.5,22.1,31,30.00,10.0,Calm,Calm,-,N/A,,Clear,0,2013-05-15 00:15:00
8:35 PM,49.3,25.2,39,30.00,10.0,Calm,Calm,-,N/A,,Clear,0,2013-05-15 00:35:00
8:55 PM,47.1,27.7,47,30.00,10.0,Calm,Calm,-,N/A,,Clear,0,2013-05-15 00:55:00
9:15 PM,43.3,30.2,60,30.00,10.0,Calm,Calm,-,N/A,,Clear,0,2013-05-15 01:15:00
9:35 PM,42.3,28.6,58,30.01,10.0,Calm,Calm,-,N/A,,Clear,0,2013-05-15 01:35:00
9:55 PM,41.5,30.9,66,30.01,10.0,Calm,Calm,-,N/A,,Clear,0,2013-05-15 01:55:00
10:15 PM,39.4,29.8,69,30.02,10.0,Calm,Calm,-,N/A,,Clear,0,2013-05-15 02:15:00
10:35 PM,39.9,31.1,71,30.02,10.0,Calm,Calm,-,N/A,,Clear,0,2013-05-15 02:35:00
10:55 PM,39.2,31.3,73,30.01,10.0,Calm,Calm,-,N/A,,Clear,0,2013-05-15 02:55:00
11:15 PM,36.7,30.0,77,30.01,10.0,Calm,Calm,-,N/A,,Clear,0,2013-05-15 03:15:00
11:35 PM,37.6,31.5,79,30.01,10.0,Calm,Calm,-,N/A,,Clear,0,2013-05-15 03:35:00